Weather History for Piney Island, NC

Change the Weather History Date:

Saturday, January 4, 2014

  Actual Average (KMRH) Record (KMRH)
Temperature  
Mean Temperature 38 °F -  
Max Temperature 48 °F 58 °F 75 °F (1950)
Min Temperature 30 °F 38 °F 15 °F (1979)
Degree Days  
Heating Degree Days 27    
Moisture  
Dew Point 31 °F    
Average Humidity 74    
Maximum Humidity 93    
Minimum Humidity 59    
Precipitation  
Precipitation 0.00 in - - ()
Sea Level Pressure  
Sea Level Pressure 30.45 in    
Wind  
Wind Speed 9 mph (NE)    
Max Wind Speed 13 mph    
Max Gust Speed -    
Averages and records for this station are not official NWS values.
T = Trace of Precipitation, MM = Missing Value Source: NWS Daily Summary

Daily Weather History Graph

Daily Weather History Graph

Search for Another Location

Airport:

Trip Planner

Search our weather history database for the weather conditions in past years. The results will help you decide how hot, cold, wet, or windy it might be!

Date:

Astronomy

Jan. 04, 2014 Rise Set
Actual Time 7:14 AM EST 5:07 PM EST
Civil Twilight 6:46 AM EST 5:35 PM EST
Nautical Twilight 6:14 AM EST 6:07 PM EST
Astronomical Twilight 5:44 AM EST 6:37 PM EST
Moon 9:27 AM EST (1/4) 9:14 PM EST (1/4)
Length of Visible Light 10h 49m
Length of Day
9h 53m
Waxing Crescent, 15% of the Moon is Illuminated
Jan 4
Waxing Crescent
Jan 7
First Quarter
Jan 15
Full
Jan 24
Last Quarter
Jan 30
New

Hourly Weather History & Observations

Time (EST) Temp. Windchill Dew Point Humidity Pressure Visibility Wind Dir Wind Speed Gust Speed Precip Events Conditions
12:56 AM 30.9 °F 22.8 °F 18.0 °F 59% 30.48 in - NNE 9.2 mph - N/A   Clear
1:56 AM 30.9 °F 23.5 °F 19.9 °F 64% 30.50 in - NNE 8.1 mph - N/A   Clear
2:48 AM 30.0 °F 23.2 °F 21.0 °F 69% 30.50 in - North 6.9 mph - N/A   Mostly Cloudy
2:56 AM 30.0 °F 23.2 °F 21.0 °F 69% 30.51 in - North 6.9 mph - N/A   Mostly Cloudy
3:25 AM 30.0 °F 23.2 °F 21.0 °F 69% 30.50 in - North 6.9 mph - N/A   Overcast
3:56 AM 30.0 °F 22.4 °F 21.9 °F 72% 30.50 in - North 8.1 mph - N/A   Mostly Cloudy
4:56 AM 30.0 °F 22.4 °F 23.0 °F 75% 30.50 in - North 8.1 mph - N/A   Clear
5:56 AM 32.0 °F 23.6 °F 24.1 °F 73% 30.49 in - North 10.4 mph - N/A   Clear
6:56 AM 32.0 °F 23.6 °F 25.0 °F 75% 30.50 in - North 10.4 mph - N/A   Clear
7:56 AM 35.1 °F 27.4 °F 26.1 °F 70% 30.51 in - NNE 10.4 mph - N/A   Clear
8:56 AM 37.0 °F 28.9 °F 28.0 °F 70% 30.53 in - NE 12.7 mph - N/A   Clear
9:56 AM 37.9 °F 30.9 °F 28.9 °F 70% 30.54 in - NNE 10.4 mph - N/A   Clear
10:56 AM 39.0 °F 33.4 °F 30.9 °F 73% 30.52 in - NNE 8.1 mph - N/A   Clear
11:56 AM 39.9 °F 32.9 °F 32.0 °F 73% 30.49 in - NE 11.5 mph - N/A   Clear
12:14 PM 41.0 °F 34.3 °F 33.1 °F 73% 30.46 in - NNE 11.5 mph - N/A   Mostly Cloudy
12:56 PM 42.1 °F 35.7 °F 33.1 °F 70% 30.45 in - NNE 11.5 mph - N/A   Overcast
1:32 PM 42.1 °F 35.7 °F 34.0 °F 73% 30.41 in - NNE 11.5 mph - N/A   Mostly Cloudy
1:56 PM 42.1 °F 35.2 °F 34.0 °F 73% 30.42 in - NNE 12.7 mph - N/A   Partly Cloudy
2:24 PM 42.1 °F 35.2 °F 33.1 °F 70% 30.40 in - NNE 12.7 mph - N/A   Mostly Cloudy
2:56 PM 43.0 °F 36.4 °F 33.1 °F 68% 30.42 in - NNE 12.7 mph - N/A   Scattered Clouds
3:56 PM 44.1 °F 39.0 °F 34.0 °F 68% 30.42 in - NNE 9.2 mph - N/A   Clear
4:56 PM 43.0 °F 38.2 °F 35.1 °F 74% 30.40 in - ENE 8.1 mph - N/A   Clear
5:56 PM 44.1 °F 40.1 °F 37.0 °F 76% 30.40 in - NE 6.9 mph - N/A   Clear
6:56 PM 45.0 °F 40.6 °F 39.0 °F 80% 30.40 in - NE 8.1 mph - N/A   Clear
7:56 PM 46.0 °F 41.0 °F 39.9 °F 79% 30.39 in - ENE 10.4 mph - N/A   Clear
8:56 PM 46.0 °F 41.0 °F 42.1 °F 86% 30.36 in - East 10.4 mph - N/A   Mostly Cloudy
9:56 PM 46.0 °F 41.4 °F 43.0 °F 89% 30.34 in - East 9.2 mph - N/A   Partly Cloudy
10:56 PM 46.9 °F - 45.0 °F 93% 30.32 in - East 5.8 mph - N/A   Clear
11:56 PM 48.0 °F - 45.0 °F 89% 30.30 in - East 6.9 mph - N/A   Clear